Regional Weather Roundup
Issued by NWS

Home | Current Version | Previous Version | Text Only | Print | Product List | Glossary On
Versions: 1 2 3 4 5 6 7 8 9 10 11 12 13 14 15 16 17 18 19 20 21 22 23 24 25 26 27 28 29 30 31 32 33 34 35 36 37 38 39 40 41 42 43 44 45 46 47 48 49 50
000
ASUS42 KKEY 210310
RWRKEY

FLORIDA REGIONAL WEATHER ROUNDUP FOR THE FLORIDA KEYS
NATIONAL WEATHER SERVICE KEY WEST FLORIDA
1000 PM EST MON FEB 20 2017

...SOUTH FLORIDA AND THE KEYS...

CITY           SKY/WX    TMP DP  RH WIND       PRES   REMARKS
FORT MYERS     PTCLDY    70  64  81 NE5       30.10S
SW REGIONAL AP CLEAR     68  61  78 CALM      30.11S
NAPLES         PTCLDY    70  66  87 CALM      30.10R
MIAMI          CLEAR     70  60  70 NE9       30.10S
WEST KENDALL   CLEAR     69  61  75 E8        30.10S
HOMESTEAD      CLEAR     72  63  73 NE9       30.08F
MARATHON       MOCLDY    76  65  68 E8        30.10R
BOCA CHICA NAS NOT AVBL
KEY WEST INTL  CLEAR     75  64  68 SE9       30.10R

...INTERNATIONAL WEATHER...

CITY           SKY/WX    TMP DP  RH WIND       PRES   REMARKS
NASSAU BAHAMAS PTCLDY    73  59  60 N7        30.13R
CANCUN MEXICO  MOCLDY    79  72  78 E8        30.01S
COZUMEL MEXICO MOCLDY    79  72  78 SE9       29.99S

ADJACENT COASTAL WATERS...

STATION/POSITION TIME  SKY/WX   TEMP    WIND        PRES    WAVE
                                AIR SEA DIR/SP/G            HT/PER
                 (UTC)          (F)     (DEG/KT/KT) (MB)    (FT/S)
PULASKI SHOAL LI 0300            74     110/ 11/ 12 1018.5F
SAND KEY         0250            75     130/ 12/ 14 1019.5R
LONG KEY         0200            75 77   90/ 12/ 14 1019.1F
MOLASSES REEF    NOT AVBL
FOWEY ROCKS      0300            74 76   50/ 18/ 20 1019.6F
Buoy 42097       0300                                 N/A     2/ 6

$$



USA.gov is the U.S. government's official web portal to all federal, state and local government web resources and services.